Location: Unspecified
(40.7945°N, 111.1337°W)
Time: 03:46:47
(UTC-06:00)

Vanguard 1 - Pass Details

Date: 01 July 2019
Orbit: 653 x 3830 km, 34.3° (Epoch: 23 July)

Event Time Altitude Azimuth Distance (km) Brightness Sun altitude
Rises 04:41:00 0° 268° (W) 7,866 14.2 -12.0°
Reaches altitude 10° 04:46:46 10° 266° (W) 6,629 13.8 -11.2°
Maximum altitude 05:06:33 66° 191° (S) 2,661 12.0 -8.5°
Drops below altitude 10° 05:17:31 10° 112° (ESE) 3,921 13.6 -6.9°
Sets 05:20:00 0° 109° (ESE) 4,600 14.0 -6.5°
